Location: Aufkirchen
(47.9603°N, 11.3653°E)
Time: 22:38:04
(UTC+01:00)

Transit 2A Rocket - Pass Details

Date: 06 December 2020
Orbit: 592 x 911 km, 66.7° (Epoch: 20 January)

Event Time Altitude Azimuth Distance (km) Brightness Sun altitude
Rises 09:53:33 0° 317° (NW) 3,096 7.5 13.5°
Reaches altitude 10° 09:56:14 10° 306° (NW) 2,119 6.8 13.7°
Maximum altitude 10:00:15 28° 249° (WSW) 1,215 6.1 14.1°
Drops below altitude 10° 10:04:02 10° 190° (S) 1,976 8.1 14.4°
Sets 10:06:27 0° 178° (S) 2,848 9.2 14.6°
